Location: Newark
(44.2003°N, 3.2583°E)
Time: 00:06:06
(UTC+00:00)

Tiros 1 - Visible Passes

Search period start: 21 October 2019 00:00
Search period end: 31 October 2019 00:00
Orbit: 630 x 664 km, 48.4° (Epoch: 19 October)

Date Brightness Start Highest point End Pass type
(mag) Time Alt. Az. Time Alt. Az. Time Alt. Az.
21 Oct 10.3 02:16:14 11° ENE 02:16:14 11° ENE 02:16:23 10° ENE visible
21 Oct 7.6 03:53:54 50° NNW 03:54:08 51° N 03:58:51 10° ENE visible
21 Oct 7.4 05:31:56 10° WNW 05:36:46 74° NNE 05:41:35 10° ESE visible
22 Oct 9.8 02:41:14 18° ENE 02:41:14 18° ENE 02:42:32 10° ENE visible
22 Oct 7.6 04:18:55 38° NW 04:20:28 55° N 04:25:12 10° E visible
23 Oct 9.0 03:06:16 29° ENE 03:06:16 29° ENE 03:08:47 10° ENE visible
23 Oct 7.3 04:43:56 25° WNW 04:46:43 71° NNE 04:51:32 10° ESE visible
24 Oct 8.1 03:31:21 46° NE 03:31:21 46° NE 03:35:08 10° E visible
24 Oct 7.2 05:09:01 16° WNW 05:12:50 75° SSW 05:17:38 10° ESE visible
25 Oct 7.3 03:56:28 68° N 03:56:40 69° NNE 04:01:29 10° E visible
25 Oct 7.8 05:34:15 10° WNW 05:38:47 41° SW 05:43:17 10° SE visible
26 Oct 9.9 02:43:59 16° E 02:43:59 16° E 02:45:04 10° E visible
26 Oct 7.1 04:21:39 52° WNW 04:22:48 79° SSW 04:27:37 10° ESE visible
27 Oct 9.1 03:09:14 26° E 03:09:14 26° E 03:11:24 10° E visible
27 Oct 7.6 04:46:55 30° W 04:48:45 44° SW 04:53:20 10° SE visible
28 Oct 8.3 03:34:34 39° ESE 03:34:34 39° ESE 03:37:36 10° ESE visible
28 Oct 8.6 05:12:16 17° W 05:14:32 23° SW 05:18:17 10° S visible
29 Oct 8.1 04:00:00 38° S 04:00:00 38° S 04:03:21 10° SE visible
29 Oct 9.3 05:39:20 10° WSW 05:40:06 10° SW 05:40:51 10° SW visible
30 Oct 8.6 04:25:32 23° SSW 04:25:32 23° SSW 04:28:24 10° SSE visible
